This is the latest recevied weather packets stored in our database for station/object OK1FET-16. If no packets are shown the sender has not sent any weather packets the latest 1 day(s).
| Time | Temp. | Humidity | Pressure | Rain* | Wind** | Luminosity | Snow |
|---|---|---|---|---|---|---|---|
| 1777977299 | 20.56° C | 48% | 1006.4 hPa | - | 1.34 m/s, 218° | - | - |
| 1777977029 | 20.56° C | 48% | 1006.5 hPa | - | 1.79 m/s, 244° | - | - |
| 1777977029 | 20.56° C | 48% | 1006.5 hPa | - | 1.79 m/s, 244° | - | - |
| 1777977029 | - | - | - | - | 1.79 m/s, 244° | - | - |
| 1777977029 | 20.56° C | 48% | 1006.5 hPa | - | 1.79 m/s, 244° | - | - |
| 1777976758 | 20.56° C | 45% | 1006.6 hPa | - | 0.89 m/s, 275° | - | - |
| 1777976758 | 20.56° C | 45% | 1006.6 hPa | - | 0.89 m/s, 275° | - | - |
| 1777976488 | 20.56° C | 47% | 1006.6 hPa | - | 1.34 m/s, 247° | - | - |
| 1777976487 | 20.56° C | 47% | 1006.6 hPa | - | 1.34 m/s, 247° | - | - |
| 1777976487 | 20.56° C | 47% | 1006.6 hPa | - | 1.34 m/s, 247° | - | - |
| 1777976217 | 20° C | 47% | 1006.7 hPa | - | 1.34 m/s, 225° | - | - |
| 1777976217 | 20° C | 47% | 1006.7 hPa | - | 1.34 m/s, 225° | - | - |
| 1777976216 | 20° C | 47% | 1006.7 hPa | - | 1.34 m/s, 225° | - | - |
| 1777975946 | 20.56° C | 50% | 1006.6 hPa | - | 1.79 m/s, 166° | - | - |
| 1777975946 | 20.56° C | 50% | 1006.6 hPa | - | 1.79 m/s, 166° | - | - |
| 1777975946 | 20.56° C | 50% | 1006.6 hPa | - | 1.79 m/s, 166° | - | - |
| 1777975405 | 20.56° C | 48% | 1006.7 hPa | - | 0.89 m/s, 243° | - | - |
| 1777975404 | 20.56° C | 48% | 1006.7 hPa | - | 0.89 m/s, 243° | - | - |
| 1777975404 | 20.56° C | 48% | 1006.7 hPa | - | 0.89 m/s, 243° | - | - |
| 1777975135 | 20° C | 49% | 1006.7 hPa | - | 1.34 m/s, 235° | - | - |
| 1777975134 | 20° C | 49% | 1006.7 hPa | - | 1.34 m/s, 235° | - | - |
| 1777974863 | 20.56° C | 48% | 1006.7 hPa | - | 0.89 m/s, 213° | - | - |
| 1777974863 | 20.56° C | 48% | 1006.7 hPa | - | 0.89 m/s, 213° | - | - |
| 1777974863 | 20.56° C | 48% | 1006.7 hPa | - | 0.89 m/s, 213° | - | - |
| 1777974051 | 20° C | 50% | 1006.9 hPa | - | 0.89 m/s, 279° | - | - |
* Rain since midnight (hover to see other rain measurements)
** Current wind speed in m/s (hover to see current wind gust speed)